User: anonymous   Login
Location: Caltech
(34.1382°N, 118.1253°W)
Time: 16:29:23
(UTC-07:00)
Language:

CZ-2C R/B - Orbit

View from above orbital plane
View from above orbital plane
View from above satellite
View from above satellite

Ground track
Ground track

The orbit data is extracted from the following two-line orbital elements,

1 28480U 04046B   17292.90184006 +.00000030 +00000-0 +27127-4 0  9991
2 28480 098.1953 021.0584 0141363 216.1242 269.8999 14.25652550671983
Epoch (UTC): 19 October 2017 21:38:38
Eccentricity: 0.0141363
inclination: 98.1953°
perigee height: 705 km
apogee height: 908 km
right ascension of ascending node: 21.0584°
argument of perigee: 216.1242°
revolutions per day: 14.25652550
mean anomaly at epoch: 269.8999°
orbit number at epoch: 67198

The dashed part of the orbit path shows where the satellite is in the earth's shadow,  

DLR